Wetterdaten: Mittwoch, 29.08.2012
Datum Zeit Temperatur Luftfeuchte Regen Wind Richtung Richtung Taupunkt Windchill Windben
29.08.2012 00:00 13,4 C 94 % 0,0 l/m 0,3 km/h (0 Bft) NO 45 12,5 C 13,3 C 0,0 km/h (0 Bft)
29.08.2012 00:05 13,4 C 94 % 0,0 l/m 0,3 km/h (0 Bft) N-NO 22 12,5 C 13,3 C 2,3 km/h (1 Bft)
29.08.2012 00:10 13,4 C 94 % 0,0 l/m 0,8 km/h (0 Bft) W 270 12,5 C 13,4 C 2,1 km/h (1 Bft)
29.08.2012 00:15 13,4 C 94 % 0,0 l/m 1,0 km/h (0 Bft) W-NW 292 12,5 C 13,4 C 0,0 km/h (0 Bft)
29.08.2012 00:20 13,4 C 94 % 0,0 l/m 0,6 km/h (0 Bft) S-SW 202 12,5 C 13,5 C 0,0 km/h (0 Bft)
29.08.2012 00:25 13,4 C 94 % 0,0 l/m 0,5 km/h (0 Bft) W-NW 292 12,5 C 13,5 C 0,0 km/h (0 Bft)
29.08.2012 00:30 13,4 C 94 % 0,0 l/m 0,3 km/h (0 Bft) W-NW 292 12,5 C 13,4 C 0,0 km/h (0 Bft)
29.08.2012 00:35 13,3 C 94 % 0,7 l/m 1,1 km/h (1 Bft) SO 135 12,4 C 13,3 C 7,9 km/h (2 Bft)
29.08.2012 00:40 13,3 C 94 % 0,0 l/m 1,8 km/h (1 Bft) N 360 12,4 C 13,2 C 1,6 km/h (1 Bft)
29.08.2012 00:45 13,3 C 94 % 0,0 l/m 1,3 km/h (1 Bft) SO 135 12,4 C 13,2 C 2,9 km/h (1 Bft)
29.08.2012 00:50 13,3 C 94 % 0,0 l/m 1,1 km/h (1 Bft) S-SO 157 12,4 C 13,1 C 2,9 km/h (1 Bft)
29.08.2012 00:55 13,2 C 94 % 0,0 l/m 0,8 km/h (0 Bft) W 270 12,3 C 13,0 C 0,0 km/h (0 Bft)
29.08.2012 01:00 13,2 C 94 % 0,0 l/m 0,3 km/h (0 Bft) W-SW 247 12,3 C 13,0 C 0,0 km/h (0 Bft)
29.08.2012 01:05 13,2 C 94 % 0,0 l/m 0,0 km/h (0 Bft) SO 135 12,3 C 13,0 C 0,0 km/h (0 Bft)
29.08.2012 01:10 13,1 C 94 % 0,0 l/m 0,0 km/h (0 Bft) NO 45 12,2 C 13,0 C 0,0 km/h (0 Bft)
29.08.2012 01:15 13,2 C 94 % 0,0 l/m 0,8 km/h (0 Bft) O 90 12,3 C 13,0 C 0,0 km/h (0 Bft)
29.08.2012 01:20 13,1 C 94 % 0,0 l/m 1,4 km/h (1 Bft) SW 225 12,2 C 13,0 C 3,9 km/h (1 Bft)
29.08.2012 01:25 13,2 C 94 % 0,0 l/m 2,3 km/h (1 Bft) S 180 12,3 C 13,0 C 4,3 km/h (1 Bft)
29.08.2012 01:30 13,2 C 94 % 0,0 l/m 2,7 km/h (1 Bft) S-SO 157 12,3 C 13,1 C 4,0 km/h (1 Bft)
29.08.2012 01:35 13,2 C 94 % 0,0 l/m 2,9 km/h (1 Bft) W-NW 292 12,3 C 13,2 C 7,6 km/h (2 Bft)
29.08.2012 01:40 13,2 C 94 % 0,0 l/m 2,9 km/h (1 Bft) W-SW 247 12,3 C 13,2 C 2,9 km/h (1 Bft)
29.08.2012 01:45 13,1 C 94 % 0,0 l/m 2,7 km/h (1 Bft) S 180 12,2 C 13,4 C 5,0 km/h (1 Bft)
29.08.2012 01:50 13,1 C 94 % 0,0 l/m 2,3 km/h (1 Bft) S 180 12,2 C 13,4 C 3,9 km/h (1 Bft)
29.08.2012 01:55 13,1 C 94 % 0,0 l/m 1,1 km/h (1 Bft) SO 135 12,2 C 13,4 C 0,0 km/h (0 Bft)
29.08.2012 02:00 13,1 C 94 % 0,0 l/m 1,4 km/h (1 Bft) N 360 12,2 C 13,5 C 1,9 km/h (1 Bft)
29.08.2012 02:05 13,1 C 94 % 0,0 l/m 1,0 km/h (0 Bft) W 270 12,2 C 13,5 C 0,0 km/h (0 Bft)
29.08.2012 02:10 13,0 C 94 % 0,0 l/m 0,8 km/h (0 Bft) SW 225 12,1 C 13,4 C 0,0 km/h (0 Bft)
29.08.2012 02:15 13,1 C 94 % 0,0 l/m 0,8 km/h (0 Bft) S-SW 202 12,2 C 13,5 C 1,8 km/h (1 Bft)
29.08.2012 02:20 13,1 C 94 % 0,0 l/m 0,8 km/h (0 Bft) S 180 12,2 C 13,6 C 0,0 km/h (0 Bft)
29.08.2012 02:25 13,1 C 94 % 0,0 l/m 0,6 km/h (0 Bft) N-NO 22 12,2 C 13,7 C 0,0 km/h (0 Bft)
29.08.2012 02:30 13,1 C 94 % 0,0 l/m 0,3 km/h (0 Bft) W-SW 247 12,2 C 13,6 C 0,0 km/h (0 Bft)
29.08.2012 02:35 13,1 C 94 % 0,0 l/m 0,2 km/h (0 Bft) N-NW 337 12,2 C 13,6 C 0,0 km/h (0 Bft)
29.08.2012 02:40 13,1 C 94 % 0,0 l/m 0,5 km/h (0 Bft) N-NO 22 12,2 C 13,5 C 0,0 km/h (0 Bft)
29.08.2012 02:45 13,1 C 94 % 0,0 l/m 0,3 km/h (0 Bft) N-NO 22 12,2 C 13,6 C 0,0 km/h (0 Bft)
29.08.2012 02:50 13,1 C 94 % 0,0 l/m 0,3 km/h (0 Bft) W 270 12,2 C 13,6 C 0,0 km/h (0 Bft)
29.08.2012 02:55 13,1 C 94 % 0,0 l/m 0,5 km/h (0 Bft) O 90 12,2 C 13,7 C 0,0 km/h (0 Bft)
29.08.2012 03:00 13,1 C 94 % 0,0 l/m 0,5 km/h (0 Bft) O 90 12,2 C 13,7 C 0,0 km/h (0 Bft)
29.08.2012 03:05 13,1 C 94 % 0,0 l/m 0,2 km/h (0 Bft) S-SW 202 12,2 C 13,7 C 0,0 km/h (0 Bft)
29.08.2012 03:10 13,2 C 94 % 0,0 l/m 0,0 km/h (0 Bft) N 360 12,3 C 13,6 C 0,0 km/h (0 Bft)
29.08.2012 03:15 13,1 C 94 % 0,0 l/m 0,0 km/h (0 Bft) S-SW 202 12,2 C 13,6 C 0,0 km/h (0 Bft)
29.08.2012 03:20 13,0 C 94 % 0,0 l/m 0,2 km/h (0 Bft) S-SW 202 12,1 C 13,5 C 1,6 km/h (1 Bft)
29.08.2012 03:25 12,9 C 95 % 0,0 l/m 0,2 km/h (0 Bft) SO 135 12,1 C 13,4 C 0,0 km/h (0 Bft)
29.08.2012 03:30 12,8 C 95 % 0,0 l/m 0,2 km/h (0 Bft) W-SW 247 12,0 C 13,3 C 0,0 km/h (0 Bft)
29.08.2012 03:35 12,6 C 95 % 0,0 l/m 0,3 km/h (0 Bft) S 180 11,8 C 13,1 C 0,0 km/h (0 Bft)
29.08.2012 03:40 12,6 C 95 % 0,0 l/m 0,3 km/h (0 Bft) W-NW 292 11,8 C 13,0 C 0,0 km/h (0 Bft)
29.08.2012 03:45 12,5 C 95 % 0,0 l/m 0,3 km/h (0 Bft) O 90 11,7 C 12,9 C 0,0 km/h (0 Bft)
29.08.2012 03:50 12,7 C 95 % 0,0 l/m 0,3 km/h (0 Bft) S-SW 202 11,9 C 12,9 C 4,0 km/h (1 Bft)
29.08.2012 03:55 12,7 C 95 % 0,0 l/m 1,0 km/h (0 Bft) N-NO 22 11,9 C 13,1 C 0,0 km/h (0 Bft)
29.08.2012 04:00 12,8 C 95 % 0,0 l/m 1,3 km/h (1 Bft) O 90 12,0 C 13,2 C 0,0 km/h (0 Bft)
29.08.2012 04:05 12,8 C 95 % 0,0 l/m 0,6 km/h (0 Bft) W-NW 292 12,0 C 13,3 C 0,0 km/h (0 Bft)
29.08.2012 04:10 12,9 C 95 % 0,0 l/m 0,3 km/h (0 Bft) O-SO 112 12,1 C 13,2 C 0,0 km/h (0 Bft)
29.08.2012 04:15 13,0 C 94 % 0,0 l/m 0,6 km/h (0 Bft) N 360 12,1 C 13,3 C 3,4 km/h (1 Bft)
29.08.2012 04:20 12,9 C 95 % 0,0 l/m 0,8 km/h (0 Bft) NO 45 12,1 C 13,3 C 0,0 km/h (0 Bft)
29.08.2012 04:25 12,9 C 95 % 0,0 l/m 0,5 km/h (0 Bft) S-SO 157 12,1 C 13,2 C 1,6 km/h (1 Bft)
29.08.2012 04:30 12,9 C 95 % 0,0 l/m 0,2 km/h (0 Bft) SO 135 12,1 C 13,2 C 0,0 km/h (0 Bft)
29.08.2012 04:35 13,0 C 94 % 0,0 l/m 0,3 km/h (0 Bft) N-NW 337 12,1 C 13,3 C 0,0 km/h (0 Bft)
29.08.2012 04:40 13,0 C 94 % 0,0 l/m 0,3 km/h (0 Bft) N 360 12,1 C 13,2 C 2,3 km/h (1 Bft)
29.08.2012 04:45 12,9 C 95 % 0,0 l/m 0,2 km/h (0 Bft) N 360 12,1 C 13,2 C 0,0 km/h (0 Bft)
29.08.2012 04:50 12,9 C 95 % 0,0 l/m 0,2 km/h (0 Bft) N 360 12,1 C 13,1 C 0,0 km/h (0 Bft)
29.08.2012 04:55 12,8 C 95 % 0,0 l/m 0,0 km/h (0 Bft) SW 225 12,0 C 13,0 C 0,0 km/h (0 Bft)
29.08.2012 05:00 12,8 C 95 % 0,0 l/m 0,0 km/h (0 Bft) W-SW 247 12,0 C 13,0 C 0,0 km/h (0 Bft)
29.08.2012 05:05 12,6 C 95 % 0,0 l/m 0,2 km/h (0 Bft) O-SO 112 11,8 C 12,7 C 3,2 km/h (1 Bft)
29.08.2012 05:10 12,5 C 94 % 0,0 l/m 0,3 km/h (0 Bft) NW 315 11,6 C 12,7 C 1,8 km/h (1 Bft)
29.08.2012 05:15 12,5 C 94 % 0,0 l/m 0,3 km/h (0 Bft) S-SW 202 11,6 C 12,4 C 0,0 km/h (0 Bft)
29.08.2012 05:20 12,3 C 94 % 0,0 l/m 0,3 km/h (0 Bft) NO 45 11,4 C 12,3 C 0,0 km/h (0 Bft)
29.08.2012 05:25 12,1 C 94 % 0,0 l/m 0,3 km/h (0 Bft) SO 135 11,2 C 12,1 C 0,0 km/h (0 Bft)
29.08.2012 05:30 12,1 C 94 % 0,0 l/m 0,3 km/h (0 Bft) O 90 11,2 C 12,1 C 0,0 km/h (0 Bft)
29.08.2012 05:35 11,9 C 94 % 0,0 l/m 0,3 km/h (0 Bft) N 360 11,0 C 12,0 C 0,0 km/h (0 Bft)
29.08.2012 05:40 11,8 C 94 % 0,0 l/m 0,2 km/h (0 Bft) N-NW 337 10,9 C 11,7 C 2,3 km/h (1 Bft)
29.08.2012 05:45 12,0 C 94 % 0,0 l/m 1,0 km/h (0 Bft) N-NW 337 11,1 C 11,6 C 2,6 km/h (1 Bft)
29.08.2012 05:50 12,0 C 94 % 0,0 l/m 1,8 km/h (1 Bft) N 360 11,1 C 11,7 C 2,4 km/h (1 Bft)
29.08.2012 05:55 11,7 C 94 % 0,0 l/m 1,4 km/h (1 Bft) N 360 10,8 C 11,6 C 0,0 km/h (0 Bft)
29.08.2012 06:00 11,9 C 94 % 0,0 l/m 0,5 km/h (0 Bft) N-NW 337 11,0 C 11,5 C 0,0 km/h (0 Bft)
29.08.2012 06:05 12,0 C 94 % 0,0 l/m 1,3 km/h (1 Bft) N 360 11,1 C 11,5 C 2,6 km/h (1 Bft)
29.08.2012 06:10 11,9 C 94 % 0,0 l/m 1,4 km/h (1 Bft) N-NO 22 11,0 C 11,6 C 2,4 km/h (1 Bft)
29.08.2012 06:15 11,6 C 94 % 0,0 l/m 1,3 km/h (1 Bft) S 180 10,7 C 11,6 C 2,1 km/h (1 Bft)
29.08.2012 06:20 11,4 C 94 % 0,0 l/m 1,0 km/h (0 Bft) N-NO 22 10,5 C 11,5 C 2,3 km/h (1 Bft)
29.08.2012 06:25 11,5 C 94 % 0,0 l/m 0,6 km/h (0 Bft) O-NO 67 10,6 C 11,2 C 0,0 km/h (0 Bft)
29.08.2012 06:30 11,3 C 94 % 0,0 l/m 0,5 km/h (0 Bft) SO 135 10,4 C 11,1 C 0,0 km/h (0 Bft)
29.08.2012 06:35 11,3 C 94 % 0,0 l/m 0,0 km/h (0 Bft) W-NW 292 10,4 C 10,9 C 0,0 km/h (0 Bft)
29.08.2012 06:40 11,3 C 94 % 0,0 l/m 0,0 km/h (0 Bft) W-NW 292 10,4 C 10,9 C 0,0 km/h (0 Bft)
29.08.2012 06:45 11,1 C 94 % 0,0 l/m 0,0 km/h (0 Bft) O-SO 112 10,2 C 10,8 C 0,0 km/h (0 Bft)
29.08.2012 06:50 11,0 C 94 % 0,0 l/m 0,0 km/h (0 Bft) N-NO 22 10,1 C 10,7 C 0,0 km/h (0 Bft)
29.08.2012 06:55 11,2 C 94 % 0,0 l/m 0,0 km/h (0 Bft) N-NO 22 10,3 C 10,8 C 0,0 km/h (0 Bft)
29.08.2012 07:00 11,3 C 94 % 0,0 l/m 0,0 km/h (0 Bft) N-NW 337 10,4 C 10,8 C 0,0 km/h (0 Bft)
29.08.2012 07:05 11,3 C 94 % 0,0 l/m 0,0 km/h (0 Bft) N-NO 22 10,4 C 11,0 C 0,0 km/h (0 Bft)
29.08.2012 07:10 11,4 C 94 % 0,0 l/m 0,0 km/h (0 Bft) N-NW 337 10,5 C 11,2 C 0,0 km/h (0 Bft)
29.08.2012 07:15 11,5 C 94 % 0,0 l/m 0,0 km/h (0 Bft) S 180 10,6 C 12,5 C 0,0 km/h (0 Bft)
29.08.2012 07:20 11,6 C 94 % 0,0 l/m 0,0 km/h (0 Bft) S 180 10,7 C 14,0 C 0,0 km/h (0 Bft)
29.08.2012 07:25 11,8 C 94 % 0,0 l/m 0,0 km/h (0 Bft) W 270 10,9 C 15,5 C 0,0 km/h (0 Bft)
29.08.2012 07:30 11,9 C 94 % 0,0 l/m 0,0 km/h (0 Bft) N 360 11,0 C 15,5 C 0,0 km/h (0 Bft)
29.08.2012 07:35 12,1 C 94 % 0,0 l/m 0,0 km/h (0 Bft) N-NO 22 11,2 C 16,3 C 0,0 km/h (0 Bft)
29.08.2012 07:40 12,3 C 94 % 0,0 l/m 0,0 km/h (0 Bft) N-NO 22 11,4 C 16,7 C 0,0 km/h (0 Bft)
29.08.2012 07:45 12,7 C 94 % 0,0 l/m 0,0 km/h (0 Bft) W 270 11,8 C 18,5 C 0,0 km/h (0 Bft)
29.08.2012 07:50 13,6 C 93 % 0,0 l/m 0,0 km/h (0 Bft) NO 45 12,5 C 19,0 C 0,0 km/h (0 Bft)
29.08.2012 07:55 13,9 C 92 % 0,0 l/m 0,0 km/h (0 Bft) N-NO 22 14,5 C 19,1 C 0,0 km/h (0 Bft)
29.08.2012 08:00 14,0 C 89 % 0,0 l/m 0,0 km/h (0 Bft) N 360 15,0 C 19,6 C 0,0 km/h (0 Bft)
29.08.2012 08:05 14,1 C 87 % 0,0 l/m 0,0 km/h (0 Bft) N 360 13,0 C 19,4 C 0,0 km/h (0 Bft)
29.08.2012 08:10 15,2 C 87 % 0,0 l/m 0,0 km/h (0 Bft) N 360 14,4 C 19,1 C 0,0 km/h (0 Bft)
29.08.2012 08:15 17,8 C 83 % 0,0 l/m 0,0 km/h (0 Bft) W-NW 292 16,7 C 21,3 C 0,0 km/h (0 Bft)
29.08.2012 08:20 19,3 C 79 % 0,0 l/m 0,0 km/h (0 Bft) NW 315 16,2 C 22,4 C 0,0 km/h (0 Bft)
29.08.2012 08:25 20,6 C 77 % 0,0 l/m 0,0 km/h (0 Bft) N-NW 337 16,5 C 23,7 C 0,0 km/h (0 Bft)
29.08.2012 08:30 20,9 C 78 % 0,0 l/m 0,0 km/h (0 Bft) N-NW 337 17,4 C 24,4 C 0,0 km/h (0 Bft)
29.08.2012 08:35 20,0 C 75 % 0,0 l/m 0,0 km/h (0 Bft) N 360 16,9 C 25,0 C 0,0 km/h (0 Bft)
29.08.2012 08:40 19,5 C 75 % 0,0 l/m 0,0 km/h (0 Bft) S-SW 202 17,1 C 25,2 C 0,0 km/h (0 Bft)
29.08.2012 08:45 19,2 C 75 % 0,0 l/m 0,0 km/h (0 Bft) N 360 17,8 C 25,4 C 0,0 km/h (0 Bft)
29.08.2012 08:50 19,3 C 74 % 0,0 l/m 0,0 km/h (0 Bft) N 360 18,4 C 25,9 C 0,0 km/h (0 Bft)
29.08.2012 08:55 19,3 C 74 % 0,0 l/m 0,0 km/h (0 Bft) N-NO 22 17,8 C 26,4 C 0,0 km/h (0 Bft)
29.08.2012 09:00 19,3 C 69 % 0,0 l/m 0,0 km/h (0 Bft) N-NW 337 16,6 C 26,5 C 0,0 km/h (0 Bft)
29.08.2012 09:05 19,5 C 72 % 0,0 l/m 0,0 km/h (0 Bft) N-NW 337 18,0 C 26,4 C 0,0 km/h (0 Bft)
29.08.2012 09:10 19,7 C 66 % 0,0 l/m 0,2 km/h (0 Bft) NW 315 16,5 C 26,0 C 0,0 km/h (0 Bft)
29.08.2012 09:15 19,7 C 68 % 0,0 l/m 0,3 km/h (0 Bft) SO 135 17,6 C 26,5 C 2,4 km/h (1 Bft)
29.08.2012 09:20 19,9 C 66 % 0,0 l/m 1,0 km/h (0 Bft) N-NW 337 16,5 C 26,4 C 3,4 km/h (1 Bft)
29.08.2012 09:25 20,3 C 70 % 0,0 l/m 1,3 km/h (1 Bft) N 360 18,3 C 26,1 C 1,9 km/h (1 Bft)
29.08.2012 09:30 20,4 C 65 % 0,0 l/m 1,3 km/h (1 Bft) N-NW 337 17,5 C 26,0 C 1,8 km/h (1 Bft)
29.08.2012 09:35 20,7 C 69 % 0,0 l/m 1,9 km/h (1 Bft) W-SW 247 18,6 C 25,8 C 1,8 km/h (1 Bft)
29.08.2012 09:40 20,9 C 68 % 0,0 l/m 1,1 km/h (1 Bft) N-NW 337 18,6 C 26,3 C 0,0 km/h (0 Bft)
29.08.2012 09:45 21,2 C 59 % 0,0 l/m 0,5 km/h (0 Bft) N-NO 22 16,2 C 27,1 C 1,6 km/h (1 Bft)
29.08.2012 09:50 21,3 C 60 % 0,0 l/m 1,0 km/h (0 Bft) W-SW 247 16,9 C 27,1 C 3,2 km/h (1 Bft)
29.08.2012 09:55 21,6 C 65 % 0,0 l/m 1,6 km/h (1 Bft) W-SW 247 18,8 C 26,9 C 4,2 km/h (1 Bft)
29.08.2012 10:00 21,7 C 60 % 0,0 l/m 1,6 km/h (1 Bft) W 270 17,6 C 26,9 C 0,0 km/h (0 Bft)
29.08.2012 10:05 22,1 C 51 % 0,0 l/m 0,8 km/h (0 Bft) W-NW 292 14,4 C 27,6 C 0,0 km/h (0 Bft)
29.08.2012 10:10 22,2 C 59 % 0,0 l/m 0,2 km/h (0 Bft) O-NO 67 17,4 C 27,7 C 0,0 km/h (0 Bft)
29.08.2012 10:15 22,5 C 57 % 0,0 l/m 0,8 km/h (0 Bft) N-NW 337 16,3 C 28,3 C 3,1 km/h (1 Bft)
29.08.2012 10:20 22,6 C 49 % 0,0 l/m 1,0 km/h (0 Bft) N-NW 337 14,2 C 28,0 C 2,7 km/h (1 Bft)
29.08.2012 10:25 23,0 C 55 % 0,0 l/m 0,8 km/h (0 Bft) W-SW 247 16,6 C 28,1 C 1,6 km/h (1 Bft)
29.08.2012 10:30 23,2 C 53 % 0,0 l/m 1,0 km/h (0 Bft) N 360 15,6 C 28,0 C 1,8 km/h (1 Bft)
29.08.2012 10:35 23,4 C 49 % 0,0 l/m 0,6 km/h (0 Bft) N-NO 22 14,4 C 28,8 C 0,0 km/h (0 Bft)
29.08.2012 10:40 23,5 C 48 % 0,0 l/m 0,3 km/h (0 Bft) NO 45 14,0 C 29,2 C 0,0 km/h (0 Bft)
29.08.2012 10:45 23,7 C 40 % 0,0 l/m 0,5 km/h (0 Bft) SO 135 11,3 C 29,2 C 0,0 km/h (0 Bft)
29.08.2012 10:50 23,9 C 45 % 0,0 l/m 0,6 km/h (0 Bft) N 360 13,2 C 29,0 C 0,0 km/h (0 Bft)
29.08.2012 10:55 24,1 C 43 % 0,0 l/m 0,6 km/h (0 Bft) NW 315 11,9 C 29,0 C 1,8 km/h (1 Bft)
29.08.2012 11:00 24,3 C 42 % 0,0 l/m 0,8 km/h (0 Bft) N-NO 22 11,3 C 28,9 C 2,6 km/h (1 Bft)
29.08.2012 11:05 24,3 C 44 % 0,0 l/m 1,1 km/h (1 Bft) N-NW 337 12,1 C 28,5 C 0,0 km/h (0 Bft)
29.08.2012 11:10 24,5 C 45 % 0,0 l/m 1,0 km/h (0 Bft) N 360 12,4 C 28,8 C 0,0 km/h (0 Bft)
29.08.2012 11:15 24,8 C 43 % 0,0 l/m 0,3 km/h (0 Bft) N 360 11,9 C 29,0 C 0,0 km/h (0 Bft)
29.08.2012 11:20 25,1 C 45 % 0,0 l/m 0,3 km/h (0 Bft) S 180 12,6 C 29,0 C 0,0 km/h (0 Bft)
29.08.2012 11:25 25,3 C 38 % 0,0 l/m 0,5 km/h (0 Bft) N-NO 22 10,0 C 29,5 C 2,4 km/h (1 Bft)
29.08.2012 11:30 25,1 C 42 % 0,0 l/m 0,8 km/h (0 Bft) S 180 11,3 C 29,5 C 0,0 km/h (0 Bft)
29.08.2012 11:35 25,5 C 42 % 0,0 l/m 0,8 km/h (0 Bft) NO 45 12,1 C 29,7 C 1,8 km/h (1 Bft)
29.08.2012 11:40 26,0 C 39 % 0,0 l/m 0,8 km/h (0 Bft) S 180 11,4 C 30,0 C 0,0 km/h (0 Bft)
29.08.2012 11:45 26,3 C 40 % 0,0 l/m 0,8 km/h (0 Bft) W-SW 247 12,5 C 30,3 C 0,0 km/h (0 Bft)
29.08.2012 11:50 26,1 C 39 % 0,0 l/m 1,1 km/h (1 Bft) N-NO 22 11,0 C 30,1 C 4,5 km/h (1 Bft)
29.08.2012 11:55 25,6 C 41 % 0,0 l/m 1,8 km/h (1 Bft) NW 315 11,4 C 29,3 C 2,6 km/h (1 Bft)
29.08.2012 12:00 26,0 C 41 % 0,0 l/m 1,9 km/h (1 Bft) SO 135 11,7 C 29,2 C 0,0 km/h (0 Bft)
29.08.2012 12:05 26,7 C 39 % 0,0 l/m 1,0 km/h (0 Bft) N 360 11,6 C 30,0 C 2,1 km/h (1 Bft)
29.08.2012 12:10 26,3 C 40 % 0,0 l/m 1,4 km/h (1 Bft) NW 315 11,6 C 30,1 C 4,5 km/h (1 Bft)
29.08.2012 12:15 26,6 C 40 % 0,0 l/m 2,3 km/h (1 Bft) N 360 11,9 C 29,4 C 2,3 km/h (1 Bft)
29.08.2012 12:20 27,0 C 42 % 0,0 l/m 2,3 km/h (1 Bft) W-SW 247 13,0 C 29,6 C 6,0 km/h (2 Bft)
29.08.2012 12:25 27,2 C 43 % 0,0 l/m 1,8 km/h (1 Bft) W-SW 247 13,5 C 29,8 C 3,7 km/h (1 Bft)
29.08.2012 12:30 26,9 C 42 % 0,0 l/m 2,3 km/h (1 Bft) SW 225 12,9 C 29,9 C 4,2 km/h (1 Bft)
29.08.2012 12:35 26,4 C 40 % 0,0 l/m 2,9 km/h (1 Bft) W-SW 247 11,7 C 29,7 C 3,2 km/h (1 Bft)
29.08.2012 12:40 26,6 C 41 % 0,0 l/m 2,7 km/h (1 Bft) N-NW 337 12,2 C 29,7 C 3,4 km/h (1 Bft)
29.08.2012 12:45 26,5 C 43 % 0,0 l/m 3,2 km/h (1 Bft) W-SW 247 12,9 C 29,6 C 5,6 km/h (1 Bft)
29.08.2012 12:50 27,0 C 43 % 0,0 l/m 2,9 km/h (1 Bft) NW 315 13,3 C 29,5 C 3,4 km/h (1 Bft)
29.08.2012 12:55 26,8 C 42 % 0,0 l/m 1,6 km/h (1 Bft) N 360 12,8 C 30,2 C 2,1 km/h (1 Bft)
29.08.2012 13:00 27,5 C 42 % 0,0 l/m 1,1 km/h (1 Bft) W 270 13,4 C 30,3 C 5,6 km/h (1 Bft)
29.08.2012 13:05 26,6 C 43 % 0,0 l/m 2,3 km/h (1 Bft) W-NW 292 13,0 C 29,3 C 3,4 km/h (1 Bft)
29.08.2012 13:10 26,8 C 43 % 0,0 l/m 3,7 km/h (1 Bft) S-SW 202 13,2 C 28,9 C 6,3 km/h (2 Bft)
29.08.2012 13:15 26,3 C 42 % 0,0 l/m 4,7 km/h (1 Bft) W-SW 247 12,3 C 28,0 C 9,3 km/h (2 Bft)
29.08.2012 13:20 26,1 C 44 % 0,0 l/m 4,0 km/h (1 Bft) S 180 12,9 C 28,2 C 5,6 km/h (1 Bft)
29.08.2012 13:25 26,3 C 46 % 0,0 l/m 2,4 km/h (1 Bft) N-NW 337 13,7 C 28,4 C 5,0 km/h (1 Bft)
29.08.2012 13:30 26,4 C 43 % 0,0 l/m 3,1 km/h (1 Bft) S 180 12,8 C 27,8 C 3,1 km/h (1 Bft)
29.08.2012 13:35 26,6 C 43 % 0,0 l/m 4,2 km/h (1 Bft) W 270 13,0 C 26,6 C 5,1 km/h (1 Bft)
29.08.2012 13:40 26,5 C 41 % 0,0 l/m 4,2 km/h (1 Bft) W-NW 292 12,2 C 26,1 C 6,8 km/h (2 Bft)
29.08.2012 13:45 25,6 C 46 % 0,0 l/m 4,8 km/h (1 Bft) S 180 13,1 C 26,0 C 4,0 km/h (1 Bft)
29.08.2012 13:50 25,9 C 45 % 0,0 l/m 4,3 km/h (1 Bft) W-SW 247 13,0 C 26,7 C 5,3 km/h (1 Bft)
29.08.2012 13:55 26,7 C 43 % 0,0 l/m 3,1 km/h (1 Bft) W 270 13,1 C 27,8 C 2,3 km/h (1 Bft)
29.08.2012 14:00 26,4 C 44 % 0,0 l/m 3,1 km/h (1 Bft) W-NW 292 13,1 C 28,5 C 3,2 km/h (1 Bft)
29.08.2012 14:05 26,2 C 42 % 0,0 l/m 2,9 km/h (1 Bft) W-NW 292 12,3 C 29,2 C 3,1 km/h (1 Bft)
29.08.2012 14:10 26,4 C 43 % 0,0 l/m 3,5 km/h (1 Bft) O 90 12,8 C 29,2 C 6,8 km/h (2 Bft)
29.08.2012 14:15 26,7 C 41 % 0,0 l/m 3,7 km/h (1 Bft) NO 45 12,3 C 29,2 C 3,5 km/h (1 Bft)
29.08.2012 14:20 27,0 C 40 % 0,0 l/m 2,9 km/h (1 Bft) NO 45 12,2 C 29,4 C 0,0 km/h (0 Bft)
29.08.2012 14:25 26,5 C 41 % 0,0 l/m 1,4 km/h (1 Bft) N-NW 337 12,2 C 30,3 C 3,4 km/h (1 Bft)
29.08.2012 14:30 26,5 C 42 % 0,0 l/m 1,8 km/h (1 Bft) NO 45 12,5 C 30,3 C 1,9 km/h (1 Bft)
29.08.2012 14:35 27,2 C 41 % 0,0 l/m 1,6 km/h (1 Bft) W-SW 247 12,8 C 31,1 C 3,1 km/h (1 Bft)
29.08.2012 14:40 27,3 C 39 % 0,0 l/m 2,3 km/h (1 Bft) W 270 12,1 C 30,9 C 8,7 km/h (2 Bft)
29.08.2012 14:45 26,7 C 40 % 0,0 l/m 3,7 km/h (1 Bft) S 180 12,0 C 30,1 C 0,0 km/h (0 Bft)
29.08.2012 14:50 27,1 C 38 % 0,0 l/m 3,4 km/h (1 Bft) N-NW 337 11,5 C 30,4 C 4,2 km/h (1 Bft)
29.08.2012 14:55 27,5 C 40 % 0,0 l/m 1,8 km/h (1 Bft) S 180 12,7 C 30,3 C 0,0 km/h (0 Bft)
29.08.2012 15:00 27,7 C 41 % 0,0 l/m 1,6 km/h (1 Bft) W-NW 292 13,2 C 31,1 C 8,5 km/h (2 Bft)
29.08.2012 15:05 26,9 C 40 % 0,0 l/m 2,3 km/h (1 Bft) W-NW 292 12,1 C 30,7 C 6,6 km/h (2 Bft)
29.08.2012 15:10 27,1 C 40 % 0,0 l/m 3,7 km/h (1 Bft) W-SW 247 12,3 C 30,3 C 2,4 km/h (1 Bft)
29.08.2012 15:15 27,4 C 40 % 0,0 l/m 3,1 km/h (1 Bft) O-NO 67 12,6 C 30,5 C 8,0 km/h (2 Bft)
29.08.2012 15:20 27,4 C 41 % 0,0 l/m 3,1 km/h (1 Bft) W 270 13,0 C 30,0 C 6,4 km/h (2 Bft)
29.08.2012 15:25 27,0 C 40 % 0,0 l/m 4,0 km/h (1 Bft) W-SW 247 12,2 C 29,9 C 9,5 km/h (2 Bft)
29.08.2012 15:30 26,9 C 40 % 0,0 l/m 3,5 km/h (1 Bft) NW 315 12,1 C 29,8 C 0,0 km/h (0 Bft)
29.08.2012 15:35 27,0 C 39 % 0,0 l/m 3,9 km/h (1 Bft) W-SW 247 11,8 C 29,7 C 6,0 km/h (2 Bft)
29.08.2012 15:40 27,0 C 40 % 0,0 l/m 3,4 km/h (1 Bft) W-SW 247 12,2 C 29,9 C 4,8 km/h (1 Bft)
29.08.2012 15:45 26,7 C 41 % 0,0 l/m 3,9 km/h (1 Bft) SO 135 12,3 C 29,7 C 3,5 km/h (1 Bft)
29.08.2012 15:50 26,7 C 40 % 0,0 l/m 4,0 km/h (1 Bft) S-SW 202 12,0 C 29,7 C 6,8 km/h (2 Bft)
29.08.2012 15:55 26,6 C 40 % 0,0 l/m 3,2 km/h (1 Bft) W 270 11,9 C 30,0 C 6,4 km/h (2 Bft)
29.08.2012 16:00 26,7 C 41 % 0,0 l/m 3,4 km/h (1 Bft) W-SW 247 12,3 C 29,7 C 3,9 km/h (1 Bft)
29.08.2012 16:05 26,6 C 40 % 0,0 l/m 3,7 km/h (1 Bft) W-SW 247 11,9 C 29,7 C 6,3 km/h (2 Bft)
29.08.2012 16:10 26,7 C 41 % 0,0 l/m 2,9 km/h (1 Bft) SO 135 12,3 C 29,7 C 0,0 km/h (0 Bft)
29.08.2012 16:15 26,3 C 43 % 0,0 l/m 4,3 km/h (1 Bft) N-NW 337 12,7 C 29,4 C 5,1 km/h (1 Bft)
29.08.2012 16:20 26,1 C 43 % 0,0 l/m 4,8 km/h (1 Bft) W-SW 247 12,5 C 29,0 C 5,1 km/h (1 Bft)
29.08.2012 16:25 26,0 C 44 % 0,0 l/m 4,5 km/h (1 Bft) W-SW 247 12,8 C 28,6 C 7,9 km/h (2 Bft)
29.08.2012 16:30 26,1 C 45 % 0,0 l/m 4,0 km/h (1 Bft) W-SW 247 13,2 C 28,5 C 4,3 km/h (1 Bft)
29.08.2012 16:35 25,6 C 46 % 0,0 l/m 3,4 km/h (1 Bft) S-SO 157 13,1 C 28,8 C 1,6 km/h (1 Bft)
29.08.2012 16:40 25,5 C 47 % 0,0 l/m 2,7 km/h (1 Bft) W 270 13,3 C 29,1 C 6,9 km/h (2 Bft)
29.08.2012 16:45 25,0 C 49 % 0,0 l/m 2,4 km/h (1 Bft) N 360 13,5 C 29,2 C 3,5 km/h (1 Bft)
29.08.2012 16:50 24,9 C 49 % 0,0 l/m 2,9 km/h (1 Bft) N-NO 22 13,4 C 29,5 C 3,2 km/h (1 Bft)
29.08.2012 16:55 24,7 C 51 % 0,0 l/m 1,9 km/h (1 Bft) N-NW 337 13,9 C 29,7 C 2,3 km/h (1 Bft)
29.08.2012 17:00 24,6 C 51 % 0,0 l/m 2,1 km/h (1 Bft) NW 315 13,8 C 29,9 C 5,3 km/h (1 Bft)
29.08.2012 17:05 24,4 C 51 % 0,0 l/m 3,1 km/h (1 Bft) W 270 13,6 C 29,3 C 5,5 km/h (1 Bft)
29.08.2012 17:10 24,4 C 50 % 0,0 l/m 3,7 km/h (1 Bft) W 270 13,3 C 29,0 C 2,7 km/h (1 Bft)
29.08.2012 17:15 24,1 C 52 % 0,0 l/m 1,8 km/h (1 Bft) NW 315 13,6 C 29,5 C 1,8 km/h (1 Bft)
29.08.2012 17:20 24,0 C 53 % 0,0 l/m 1,0 km/h (0 Bft) N 360 13,8 C 29,8 C 1,9 km/h (1 Bft)
29.08.2012 17:25 23,8 C 52 % 0,0 l/m 0,8 km/h (0 Bft) N-NW 337 13,3 C 30,0 C 0,0 km/h (0 Bft)
29.08.2012 17:30 23,7 C 52 % 0,0 l/m 1,8 km/h (1 Bft) N-NW 337 13,2 C 29,9 C 4,2 km/h (1 Bft)
29.08.2012 17:35 23,5 C 53 % 0,0 l/m 2,9 km/h (1 Bft) W 270 13,4 C 29,0 C 3,1 km/h (1 Bft)
29.08.2012 17:40 23,3 C 54 % 0,0 l/m 2,7 km/h (1 Bft) W 270 13,5 C 28,8 C 3,4 km/h (1 Bft)
29.08.2012 17:45 23,3 C 54 % 0,0 l/m 1,0 km/h (0 Bft) NO 45 13,5 C 28,7 C 0,0 km/h (0 Bft)
29.08.2012 17:50 23,3 C 54 % 0,0 l/m 0,3 km/h (0 Bft) S-SO 157 13,5 C 29,3 C 1,8 km/h (1 Bft)
29.08.2012 17:55 23,3 C 54 % 0,0 l/m 1,1 km/h (1 Bft) W-SW 247 13,5 C 29,4 C 4,8 km/h (1 Bft)
29.08.2012 18:00 23,2 C 54 % 0,0 l/m 2,1 km/h (1 Bft) W 270 13,4 C 28,9 C 3,7 km/h (1 Bft)
29.08.2012 18:05 23,1 C 55 % 0,0 l/m 2,1 km/h (1 Bft) N-NW 337 13,6 C 28,8 C 3,7 km/h (1 Bft)
29.08.2012 18:10 23,1 C 56 % 0,0 l/m 1,9 km/h (1 Bft) N-NW 337 13,8 C 28,8 C 3,5 km/h (1 Bft)
29.08.2012 18:15 22,8 C 57 % 0,0 l/m 2,6 km/h (1 Bft) N 360 13,8 C 28,3 C 2,4 km/h (1 Bft)
29.08.2012 18:20 22,8 C 57 % 0,0 l/m 2,4 km/h (1 Bft) W 270 13,8 C 27,9 C 0,0 km/h (0 Bft)
29.08.2012 18:25 22,3 C 58 % 0,0 l/m 1,9 km/h (1 Bft) N-NW 337 13,6 C 26,8 C 0,0 km/h (0 Bft)
29.08.2012 18:30 22,3 C 58 % 0,0 l/m 1,8 km/h (1 Bft) N 360 13,6 C 26,4 C 2,3 km/h (1 Bft)
29.08.2012 18:35 22,1 C 58 % 0,0 l/m 1,0 km/h (0 Bft) NW 315 13,4 C 26,6 C 2,6 km/h (1 Bft)
29.08.2012 18:40 22,0 C 58 % 0,0 l/m 0,3 km/h (0 Bft) N-NO 22 13,3 C 26,9 C 0,0 km/h (0 Bft)
29.08.2012 18:45 22,0 C 58 % 0,0 l/m 0,6 km/h (0 Bft) O-NO 67 13,3 C 27,3 C 0,0 km/h (0 Bft)
29.08.2012 18:50 22,0 C 58 % 0,0 l/m 0,5 km/h (0 Bft) N-NO 22 13,3 C 27,6 C 0,0 km/h (0 Bft)
29.08.2012 18:55 21,9 C 59 % 0,0 l/m 0,2 km/h (0 Bft) N-NO 22 13,5 C 27,6 C 0,0 km/h (0 Bft)
29.08.2012 19:00 21,9 C 59 % 0,0 l/m 0,3 km/h (0 Bft) N-NO 22 13,5 C 27,3 C 0,0 km/h (0 Bft)
29.08.2012 19:05 21,7 C 59 % 0,0 l/m 0,6 km/h (0 Bft) N 360 13,3 C 26,5 C 0,0 km/h (0 Bft)
29.08.2012 19:10 21,7 C 59 % 0,0 l/m 0,6 km/h (0 Bft) N-NO 22 13,3 C 25,8 C 0,0 km/h (0 Bft)
29.08.2012 19:15 21,2 C 62 % 0,0 l/m 0,3 km/h (0 Bft) N 360 13,6 C 24,1 C 0,0 km/h (0 Bft)
29.08.2012 19:20 20,8 C 63 % 0,0 l/m 0,2 km/h (0 Bft) N-NO 22 13,5 C 23,1 C 0,0 km/h (0 Bft)
29.08.2012 19:25 20,4 C 65 % 0,0 l/m 0,0 km/h (0 Bft) N-NO 22 13,6 C 21,8 C 0,0 km/h (0 Bft)
29.08.2012 19:30 20,3 C 65 % 0,0 l/m 0,0 km/h (0 Bft) NW 315 13,5 C 21,2 C 0,0 km/h (0 Bft)
29.08.2012 19:35 20,1 C 65 % 0,0 l/m 0,0 km/h (0 Bft) NO 45 13,3 C 20,6 C 0,0 km/h (0 Bft)
29.08.2012 19:40 19,9 C 66 % 0,0 l/m 0,0 km/h (0 Bft) N 360 13,4 C 20,2 C 0,0 km/h (0 Bft)
29.08.2012 19:45 19,1 C 67 % 0,0 l/m 0,0 km/h (0 Bft) NO 45 12,8 C 19,6 C 0,0 km/h (0 Bft)
29.08.2012 19:50 18,5 C 69 % 0,0 l/m 0,0 km/h (0 Bft) NO 45 12,7 C 19,1 C 0,0 km/h (0 Bft)
29.08.2012 19:55 18,4 C 70 % 0,0 l/m 0,0 km/h (0 Bft) NO 45 12,8 C 18,5 C 0,0 km/h (0 Bft)
29.08.2012 20:00 18,4 C 70 % 0,0 l/m 0,0 km/h (0 Bft) N 360 12,8 C 18,2 C 0,0 km/h (0 Bft)
29.08.2012 20:05 18,1 C 70 % 0,0 l/m 0,0 km/h (0 Bft) N 360 12,5 C 17,7 C 0,0 km/h (0 Bft)
29.08.2012 20:10 18,0 C 71 % 0,0 l/m 0,0 km/h (0 Bft) N 360 12,7 C 17,5 C 0,0 km/h (0 Bft)
29.08.2012 20:15 18,0 C 72 % 0,0 l/m 0,2 km/h (0 Bft) N-NO 22 12,9 C 17,4 C 1,9 km/h (1 Bft)
29.08.2012 20:20 17,7 C 73 % 0,0 l/m 0,3 km/h (0 Bft) O-SO 112 12,8 C 17,3 C 0,0 km/h (0 Bft)
29.08.2012 20:25 17,2 C 75 % 0,0 l/m 0,3 km/h (0 Bft) N 360 12,7 C 16,9 C 0,0 km/h (0 Bft)
29.08.2012 20:30 17,0 C 75 % 0,0 l/m 0,0 km/h (0 Bft) N-NW 337 12,5 C 16,7 C 0,0 km/h (0 Bft)
29.08.2012 20:35 17,1 C 76 % 0,0 l/m 0,0 km/h (0 Bft) N 360 12,8 C 16,5 C 0,0 km/h (0 Bft)
29.08.2012 20:40 17,0 C 76 % 0,0 l/m 0,0 km/h (0 Bft) O-SO 112 12,7 C 16,5 C 0,0 km/h (0 Bft)
29.08.2012 20:45 16,6 C 77 % 0,0 l/m 0,0 km/h (0 Bft) NO 45 12,5 C 16,4 C 0,0 km/h (0 Bft)
29.08.2012 20:50 16,6 C 77 % 0,0 l/m 0,0 km/h (0 Bft) N 360 12,5 C 16,3 C 0,0 km/h (0 Bft)
29.08.2012 20:55 16,5 C 77 % 0,0 l/m 0,0 km/h (0 Bft) N-NO 22 12,5 C 16,2 C 0,0 km/h (0 Bft)
29.08.2012 21:00 16,5 C 77 % 0,0 l/m 0,0 km/h (0 Bft) NO 45 12,5 C 16,2 C 0,0 km/h (0 Bft)
29.08.2012 21:05 16,6 C 77 % 0,0 l/m 0,0 km/h (0 Bft) N-NO 22 12,5 C 16,2 C 0,0 km/h (0 Bft)
29.08.2012 21:10 16,4 C 77 % 0,0 l/m 0,0 km/h (0 Bft) S 180 12,4 C 16,2 C 0,0 km/h (0 Bft)
29.08.2012 21:15 16,1 C 77 % 0,0 l/m 0,0 km/h (0 Bft) O-NO 67 12,1 C 16,2 C 0,0 km/h (0 Bft)
29.08.2012 21:20 16,2 C 77 % 0,0 l/m 0,0 km/h (0 Bft) N-NO 22 12,2 C 16,1 C 0,0 km/h (0 Bft)
29.08.2012 21:25 16,1 C 78 % 0,0 l/m 0,0 km/h (0 Bft) O-SO 112 12,3 C 16,0 C 0,0 km/h (0 Bft)
29.08.2012 21:30 16,3 C 78 % 0,0 l/m 0,0 km/h (0 Bft) S-SO 157 12,5 C 16,0 C 0,0 km/h (0 Bft)
29.08.2012 21:35 16,5 C 78 % 0,0 l/m 0,0 km/h (0 Bft) O-SO 112 12,6 C 16,2 C 0,0 km/h (0 Bft)
29.08.2012 21:40 16,5 C 78 % 0,0 l/m 0,3 km/h (0 Bft) SO 135 12,6 C 16,3 C 0,0 km/h (0 Bft)
29.08.2012 21:45 16,3 C 78 % 0,0 l/m 0,2 km/h (0 Bft) N 360 12,5 C 16,3 C 0,0 km/h (0 Bft)
29.08.2012 21:50 16,1 C 78 % 0,0 l/m 0,0 km/h (0 Bft) N-NO 22 12,3 C 16,1 C 0,0 km/h (0 Bft)
29.08.2012 21:55 16,0 C 78 % 0,0 l/m 0,0 km/h (0 Bft) W-SW 247 12,2 C 16,0 C 0,0 km/h (0 Bft)
29.08.2012 22:00 16,0 C 78 % 0,0 l/m 0,0 km/h (0 Bft) N 360 12,2 C 15,8 C 0,0 km/h (0 Bft)
29.08.2012 22:05 15,9 C 79 % 0,0 l/m 0,0 km/h (0 Bft) NW 315 12,3 C 15,7 C 0,0 km/h (0 Bft)
29.08.2012 22:10 15,8 C 79 % 0,0 l/m 0,0 km/h (0 Bft) W 270 12,2 C 15,7 C 0,0 km/h (0 Bft)
29.08.2012 22:15 15,8 C 81 % 0,0 l/m 0,0 km/h (0 Bft) N 360 12,5 C 15,5 C 0,0 km/h (0 Bft)
29.08.2012 22:20 15,7 C 81 % 0,0 l/m 0,0 km/h (0 Bft) NW 315 12,4 C 15,4 C 0,0 km/h (0 Bft)
29.08.2012 22:25 15,7 C 82 % 0,0 l/m 0,0 km/h (0 Bft) W-NW 292 12,6 C 15,3 C 0,0 km/h (0 Bft)
29.08.2012 22:30 15,5 C 81 % 0,0 l/m 0,0 km/h (0 Bft) N-NO 22 12,3 C 15,2 C 0,0 km/h (0 Bft)
29.08.2012 22:35 15,7 C 81 % 0,0 l/m 0,0 km/h (0 Bft) NO 45 12,4 C 15,2 C 0,0 km/h (0 Bft)
29.08.2012 22:40 15,7 C 81 % 0,0 l/m 0,0 km/h (0 Bft) O 90 12,4 C 15,2 C 0,0 km/h (0 Bft)
29.08.2012 22:45 15,5 C 81 % 0,0 l/m 0,0 km/h (0 Bft) N-NW 337 12,3 C 15,2 C 0,0 km/h (0 Bft)
29.08.2012 22:50 15,4 C 81 % 0,0 l/m 0,0 km/h (0 Bft) NO 45 12,2 C 15,2 C 0,0 km/h (0 Bft)
29.08.2012 22:55 15,7 C 81 % 0,0 l/m 0,0 km/h (0 Bft) N-NO 22 12,4 C 15,3 C 0,0 km/h (0 Bft)
29.08.2012 23:00 15,9 C 81 % 0,0 l/m 0,0 km/h (0 Bft) N 360 12,6 C 15,4 C 0,0 km/h (0 Bft)
29.08.2012 23:05 15,8 C 80 % 0,0 l/m 0,0 km/h (0 Bft) S 180 12,4 C 15,6 C 0,0 km/h (0 Bft)
29.08.2012 23:10 15,9 C 80 % 0,0 l/m 0,0 km/h (0 Bft) S 180 12,5 C 15,7 C 0,0 km/h (0 Bft)
29.08.2012 23:15 15,7 C 80 % 0,0 l/m 0,0 km/h (0 Bft) S-SW 202 12,3 C 15,7 C 0,0 km/h (0 Bft)
29.08.2012 23:20 15,6 C 80 % 0,0 l/m 0,0 km/h (0 Bft) O 90 12,2 C 15,6 C 0,0 km/h (0 Bft)
29.08.2012 23:25 15,6 C 81 % 0,0 l/m 0,3 km/h (0 Bft) N-NO 22 12,3 C 15,6 C 0,0 km/h (0 Bft)
29.08.2012 23:30 16,0 C 80 % 0,0 l/m 1,0 km/h (0 Bft) O-SO 112 12,5 C 15,7 C 5,1 km/h (1 Bft)
29.08.2012 23:35 16,4 C 79 % 0,0 l/m 2,1 km/h (1 Bft) W-NW 292 12,7 C 16,0 C 6,9 km/h (2 Bft)
29.08.2012 23:40 16,5 C 79 % 0,0 l/m 2,9 km/h (1 Bft) SO 135 12,8 C 16,3 C 9,0 km/h (2 Bft)
29.08.2012 23:45 16,8 C 78 % 0,0 l/m 3,5 km/h (1 Bft) O-SO 112 12,9 C 16,8 C 10,1 km/h (2 Bft)
29.08.2012 23:50 17,0 C 78 % 0,0 l/m 3,4 km/h (1 Bft) O 90 13,1 C 17,1 C 5,3 km/h (1 Bft)
29.08.2012 23:55 16,9 C 78 % 0,0 l/m 3,7 km/h (1 Bft) NO 45 13,0 C 17,3 C 3,4 km/h (1 Bft)
_ Min-Zeit 06:50 14:50 - 23:20 - - 11:25 06:50 23:25
Minimum _ 11,0 C 38 % - 0,0 km/h (0 Bft) - - 10,0 C 10,7 C 0,0 km/h (0 Bft)
_ Max-Zeit 15:00 05:05 00:35 16:20 - - 09:55 15:00 23:45
Maximum _ 27,7 C 95 % 0,7 l/m 4,8 km/h
W-SW (1 Bft)
- - 18,8 C 31,1 C 10,1 km/h
O-SO (2 Bft)
Durchschnitt _ 18,9 C 70 % #0,7 l/m 1,1 km/h (1 Bft) W-SW - 12,8 C 21,0 C 1,7 km/h (1 Bft)